Location: Newark
(44.6768°N, 22.5302°E)
Time: 02:19:11
(UTC+00:00)

CUTE 1.7 + AOD 2 - Pass Details

Date: 04 July 2022
Orbit: 589 x 608 km, 97.7° (Epoch: 08 August)

Event Time Altitude Azimuth Distance (km) Brightness Sun altitude
Rises 01:03:08 0° 35° (NE) 2,844 ? -14.4°
Reaches altitude 10° 01:07:00 10° 72° (ENE) 1,929 ? -14.0°
Maximum altitude 01:08:11 11° 88° (E) 1,859 ? -13.8°
Drops below altitude 10° 01:09:22 10° 105° (ESE) 1,922 ? -13.7°
Sets 01:13:11 0° 141° (SE) 2,812 ? -13.3°
